EW4565 Weather Reports


Display with metric or nautical units.
time (UTC)temp
F
wind
direction
speed
MPH
gust
MPH
rain 1hr
in
rain 24hr
in
rain mn
in
humidity
%
barometer
mb
20260903102530 54 55 0.0 0.0 0.00 0.00 0.00 88 1007.4
20260903102030 54 55 0.0 0.0 0.00 0.00 0.00 88 1007.4
20260903101532 53 55 0.0 0.0 0.00 0.00 0.00 88 1007.5
20260903101353 53 55 0.0 0.0 0.00 0.00 0.00 88 1007.5
20260903100532 53 55 0.0 0.0 0.00 0.00 0.00 88 1007.4
20260903100400 53 55 0.0 0.0 0.00 0.00 0.00 88 1007.5
20260903095531 53 55 0.0 0.0 0.00 0.00 0.00 88 1007.5
20260903095354 53 55 0.0 1.0 0.00 0.00 0.00 88 1007.5
20260903094534 53 55 0.0 1.0 0.00 0.00 0.00 88 1007.5
20260903094032 54 55 0.0 1.0 0.00 0.00 0.00 88 1007.5
20260903093533 54 55 0.0 0.0 0.00 0.00 0.00 88 1007.4
20260903093033 54 55 0.0 0.0 0.00 0.00 0.00 88 1007.4
20260903092532 54 55 0.0 0.0 0.00 0.00 0.00 88 1007.5
20260903092031 54 55 0.0 0.0 0.00 0.00 0.00 87 1007.5
20260903091907 54 55 0.0 0.0 0.00 0.00 0.00 87 1007.5
20260903091355 54 55 0.0 0.0 0.00 0.00 0.00 87 1007.7
20260903090533 54 55 0.0 0.0 0.00 0.00 0.00 87 1007.7
20260903090035 54 55 0.0 0.0 0.00 0.00 0.00 86 1007.8
20260903085532 54 55 0.0 0.0 0.00 0.00 0.00 86 1007.7
20260903085032 54 55 0.0 0.0 0.00 0.00 0.00 85 1007.7
20260903084534 55 55 0.0 2.0 0.00 0.00 0.00 84 1007.7
20260903084032 55 55 0.0 2.0 0.00 0.00 0.00 84 1007.5
20260903083531 55 55 0.0 0.0 0.00 0.00 0.00 84 1007.5
20260903083033 55 55 0.0 2.0 0.00 0.00 0.00 83 1007.7
20260903082533 55 55 0.0 2.0 0.00 0.00 0.00 83 1007.5
20260903082353 55 56 0.0 3.0 0.00 0.00 0.00 84 1007.5
20260903081532 55 56 0.0 3.0 0.00 0.00 0.00 84 1007.7
20260903081034 55 56 0.0 2.0 0.00 0.00 0.00 84 1007.7
20260903080532 55 56 0.0 1.0 0.00 0.00 0.00 84 1007.7
20260903080033 55 56 0.0 1.0 0.00 0.00 0.00 84 1007.7
20260903075532 55 56 0.0 3.0 0.00 0.00 0.00 83 1007.7
20260903075033 55 56 0.0 3.0 0.00 0.00 0.00 83 1007.7
20260903074533 55 56 1.0 3.0 0.00 0.00 0.00 82 1007.7
20260903074031 55 56 1.0 4.0 0.00 0.00 0.00 81 1007.7
20260903073531 55 56 2.0 5.0 0.00 0.00 0.00 81 1007.4
20260903073037 55 57 1.0 5.0 0.00 0.00 0.00 82 1007.7
20260903072531 54 71 0.0 2.0 0.00 0.00 0.00 84 1007.8
20260903072032 54 71 0.0 1.0 0.00 0.00 0.00 85 1007.8
20260903071533 54 71 0.0 0.0 0.00 0.00 0.00 85 1007.5
20260903071030 54 71 0.0 0.0 0.00 0.00 0.00 85 1007.5
20260903070850 54 71 0.0 0.0 0.00 0.00 0.00 85 1007.5
20260903070029 54 71 0.0 0.0 0.00 0.00 0.00 84 1007.4
20260903065530 54 71 0.0 0.0 0.00 0.00 0.00 84 1007.4
20260903065344 54 71 0.0 0.0 0.00 0.00 0.00 84 1007.3
20260903064529 54 71 0.0 0.0 0.00 0.00 0.00 84 1007.3
20260903064029 54 71 0.0 0.0 0.00 0.00 0.00 84 1007.3
20260903063529 54 71 0.0 0.0 0.00 0.00 0.00 85 1007.4
20260903063029 54 71 0.0 0.0 0.00 0.00 0.00 85 1007.4
20260903062845 53 71 0.0 0.0 0.00 0.00 0.00 85 1007.7
20260903062031 53 71 0.0 0.0 0.00 0.00 0.00 85 1007.9
20260903061529 53 71 0.0 0.0 0.00 0.00 0.00 85 1007.7
20260903061030 53 71 0.0 0.0 0.00 0.00 0.00 85 1007.8
20260903060529 53 71 0.0 0.0 0.00 0.00 0.00 85 1007.9
20260903060030 53 71 0.0 0.0 0.00 0.00 0.00 85 1007.9
20260903055530 53 71 0.0 0.0 0.00 0.00 0.00 85 1007.9
20260903055029 53 71 0.0 0.0 0.00 0.00 0.00 84 1007.8
20260903054530 53 71 0.0 0.0 0.00 0.00 0.00 85 1007.5
20260903054029 53 71 0.0 0.0 0.00 0.00 0.00 85 1007.7
20260903053530 53 71 0.0 0.0 0.00 0.00 0.00 86 1007.7
20260903053031 53 71 0.0 0.0 0.00 0.00 0.00 86 1007.7
20260903052847 53 71 0.0 0.0 0.00 0.00 0.00 85 1007.7
20260903052028 53 71 0.0 0.0 0.00 0.00 0.00 85 1007.8
20260903051530 53 71 0.0 0.0 0.00 0.00 0.00 85 1008.0
20260903051345 53 71 0.0 0.0 0.00 0.00 0.00 84 1008.0
20260903050530 53 71 0.0 0.0 0.00 0.00 0.00 84 1008.0
20260903050347 53 71 0.0 0.0 0.00 0.00 0.00 84 1008.1
20260903045847 53 71 0.0 0.0 0.00 0.00 0.00 84 1008.1
20260903045024 54 71 0.0 0.0 0.00 0.00 0.00 84 1008.0
20260903044656 54 71 0.0 0.0 0.00 0.00 0.00 84 1007.9
20260903044625 54 71 0.0 0.0 0.00 0.00 0.00 84 1007.9
20260903043519 54 71 0.0 0.0 0.00 0.00 0.00 84 1007.9
20260903043017 54 71 0.0 0.0 0.00 0.00 0.00 85 1007.9
20260903042515 54 71 0.0 0.0 0.00 0.00 0.00 84 1008.0
20260903042014 55 71 0.0 0.0 0.00 0.00 0.00 84 1007.9
20260903041516 55 71 0.0 0.0 0.00 0.00 0.00 83 1007.9
20260903041013 55 71 0.0 1.0 0.00 0.00 0.00 83 1007.8
20260903040510 55 71 0.0 1.0 0.00 0.00 0.00 83 1007.8
20260903040009 55 71 0.0 1.0 0.00 0.00 0.00 83 1007.8
20260903035508 55 71 0.0 1.0 0.00 0.00 0.00 84 1007.8
20260903035009 55 71 0.0 0.0 0.00 0.00 0.00 84 1007.8
20260903034825 55 71 0.0 0.0 0.00 0.00 0.00 84 1007.8
20260903034006 56 71 0.0 0.0 0.00 0.00 0.00 83 1007.8
20260903033507 56 71 0.0 0.0 0.00 0.00 0.00 83 1007.8
20260903033006 56 71 0.0 0.0 0.00 0.00 0.00 84 1007.8
20260903032504 56 71 0.0 0.0 0.00 0.00 0.00 83 1007.8
20260903032001 56 71 0.0 0.0 0.00 0.00 0.00 83 1007.5
20260903031501 57 71 0.0 0.0 0.00 0.00 0.00 83 1007.4
20260903031001 57 71 0.0 0.0 0.00 0.00 0.00 83 1007.4
20260903030501 57 71 0.0 0.0 0.00 0.00 0.00 82 1007.4
20260903030001 57 71 0.0 0.0 0.00 0.00 0.00 82 1007.4
20260903025500 57 71 0.0 0.0 0.00 0.00 0.00 82 1007.4
20260903025159 58 71 0.0 0.0 0.00 0.00 0.00 81 1007.5
20260903025125 57 71 0.0 0.0 0.00 0.00 0.00 81 1007.5
20260903024004 58 71 0.0 0.0 0.00 0.00 0.00 80 1007.5
20260903023504 58 71 0.0 3.0 0.00 0.00 0.00 80 1007.5
20260903023005 58 71 0.0 3.0 0.00 0.00 0.00 80 1007.7
20260903022506 58 73 0.0 4.0 0.00 0.00 0.00 79 1007.5
20260903022005 59 73 0.0 4.0 0.00 0.00 0.00 79 1007.7
20260903021506 59 80 0.0 3.0 0.00 0.00 0.00 78 1007.7
20260903021006 60 80 0.0 3.0 0.00 0.00 0.00 78 1007.7
20260903020504 60 79 0.0 1.0 0.00 0.00 0.00 78 1007.7
20260903020338 60 80 0.0 2.0 0.00 0.00 0.00 76 1007.5
20260903015503 60 80 0.0 2.0 0.00 0.00 0.00 74 1007.4
20260903015001 61 79 0.0 2.0 0.00 0.00 0.00 74 1007.5
20260903014503 61 80 0.0 4.0 0.00 0.00 0.00 74 1007.5
20260903014002 61 80 0.0 4.0 0.00 0.00 0.00 75 1007.7
20260903013836 61 79 0.0 2.0 0.00 0.00 0.00 76 1007.9
20260903013003 60 80 0.0 2.0 0.00 0.00 0.00 76 1007.9
20260903012502 60 80 0.0 2.0 0.00 0.00 0.00 77 1007.9
20260903012001 60 79 0.0 3.0 0.00 0.00 0.00 78 1007.9
20260903011502 59 79 0.0 3.0 0.00 0.00 0.00 80 1007.9
20260903011002 59 80 0.0 0.0 0.00 0.00 0.00 80 1008.0
20260903010502 59 79 0.0 0.0 0.00 0.00 0.00 80 1008.0
20260903010001 59 80 0.0 0.0 0.00 0.00 0.00 80 1008.0
20260903005503 59 79 0.0 2.0 0.00 0.00 0.00 80 1008.1
20260903005322 59 81 0.0 2.0 0.00 0.00 0.00 79 1008.1
20260903004821 59 80 0.0 2.0 0.00 0.00 0.00 78 1008.3
20260903004001 59 80 0.0 2.0 0.00 0.00 0.00 77 1008.4
20260903003503 59 60 0.0 2.0 0.00 0.00 0.00 76 1008.3
20260903003001 59 60 0.0 1.0 0.00 0.00 0.00 77 1008.3
20260903002827 59 60 0.0 1.0 0.00 0.00 0.00 78 1008.3
20260903002001 59 60 0.0 2.0 0.00 0.00 0.00 77 1008.3
20260903001502 59 60 0.0 2.0 0.00 0.00 0.00 78 1008.3
20260903001004 59 60 0.0 5.0 0.00 0.00 0.00 79 1008.3
20260903000848 59 60 1.0 5.0 0.00 0.00 0.00 79 1008.4
20260903000002 58 64 0.0 4.0 0.00 0.00 0.00 80 1008.3
20260902235835 58 96 0.0 2.0 0.00 0.00 0.00 80 1008.2
20260902235002 58 95 0.0 3.0 0.00 0.00 0.00 81 1008.2
20260902234502 58 96 0.0 3.0 0.00 0.00 0.00 82 1008.1
20260902234335 59 99 0.0 3.0 0.00 0.00 0.00 82 1008.1
20260902233500 59 86 0.0 1.0 0.00 0.00 0.00 82 1008.0
20260902233002 59 86 0.0 2.0 0.00 0.00 0.00 81 1007.9
20260902232505 59 86 0.0 2.0 0.00 0.00 0.00 81 1008.0
20260902232327 59 86 0.0 2.0 0.00 0.00 0.00 81 1007.8
20260902231504 59 86 0.0 1.0 0.00 0.00 0.00 81 1007.8
20260902231322 60 86 0.0 1.0 0.00 0.00 0.00 80 1007.9
20260902230505 60 86 0.0 0.0 0.00 0.00 0.00 80 1007.9
20260902230327 60 86 0.0 3.0 0.00 0.00 0.00 79 1007.9
20260902225504 60 86 0.0 3.0 0.00 0.00 0.00 79 1007.9
20260902225005 60 86 0.0 3.0 0.00 0.00 0.00 80 1008.0
20260902224503 60 86 0.0 3.0 0.00 0.00 0.00 79 1007.9
20260902224005 60 86 0.0 3.0 0.00 0.00 0.00 78 1007.9
20260902223504 60 86 0.0 3.0 0.00 0.00 0.00 78 1008.0
20260902223327 60 69 0.0 5.0 0.00 0.00 0.00 78 1008.0
20260902222504 60 69 0.0 5.0 0.00 0.00 0.00 81 1008.1
20260902222006 60 68 0.0 5.0 0.00 0.00 0.00 78 1008.2
20260902221504 59 69 1.0 5.0 0.00 0.00 0.00 78 1008.2
20260902221007 59 147 1.0 10.0 0.00 0.00 0.00 79 1008.2
20260902220509 59 140 2.0 10.0 0.00 0.00 0.00 80 1008.3
20260902220005 59 201 3.0 10.0 0.00 0.00 0.00 79 1008.3
20260902215834 59 34 2.0 10.0 0.00 0.00 0.00 79 1008.3
20260902215006 60 51 3.0 10.0 0.00 0.00 0.00 78 1008.3
20260902214824 60 45 3.0 10.0 0.00 0.00 0.00 75 1008.3
20260902214002 60 154 2.0 8.0 0.00 0.00 0.00 73 1008.3
20260902213501 61 47 2.0 10.0 0.00 0.00 0.00 72 1008.3
20260902213322 61 78 2.0 10.0 0.00 0.00 0.00 72 1008.2
20260902212501 61 49 2.0 10.0 0.00 0.00 0.00 70 1008.3
20260902212002 62 67 2.0 10.0 0.00 0.00 0.00 68 1008.3
20260902211502 62 51 2.0 8.0 0.00 0.00 0.00 68 1008.3
20260902211001 62 152 2.0 8.0 0.00 0.00 0.00 68 1008.3
20260902210502 62 108 3.0 9.0 0.00 0.00 0.00 67 1008.3
20260902210000 63 45 2.0 9.0 0.00 0.00 0.00 65 1008.2
20260902205820 63 169 1.0 6.0 0.00 0.00 0.00 65 1008.2
20260902205003 63 147 2.0 9.0 0.00 0.00 0.00 65 1008.1
20260902204822 63 152 2.0 10.0 0.00 0.00 0.00 64 1008.1
20260902204321 63 58 2.0 10.0 0.00 0.00 0.00 63 1008.1
20260902203500 63 52 2.0 9.0 0.00 0.00 0.00 63 1008.0
20260902203158 64 64 2.0 10.0 0.00 0.00 0.00 62 1008.0
20260902203107 64 162 2.0 9.0 0.00 0.00 0.00 62 1007.9
20260902202001 64 154 2.0 10.0 0.00 0.00 0.00 61 1007.9
20260902201824 64 114 2.0 8.0 0.00 0.00 0.00 61 1007.9
20260902201001 64 87 2.0 8.0 0.00 0.00 0.00 61 1007.8
20260902200501 64 50 3.0 9.0 0.00 0.00 0.00 62 1007.7
20260902200000 64 64 3.0 9.0 0.00 0.00 0.00 61 1007.7
20260902195501 64 131 2.0 9.0 0.00 0.00 0.00 61 1007.8
20260902195000 64 66 2.0 11.0 0.00 0.00 0.00 61 1007.8
20260902194820 64 172 1.0 5.0 0.00 0.00 0.00 68 1006.7
20260902194701 64 133 3.0 11.0 0.00 0.00 0.00 61 1007.7
20260902194438 58 56 0.0 0.0 0.00 0.00 0.00 74 1006.5
20260902194109 56 56 0.0 0.0 0.00 0.00 0.00 78 1006.3
20260902194100 56 56 0.0 0.0 0.00 0.00 0.00 78 1006.6
20260902194056 56 56 0.0 0.0 0.00 0.00 0.00 78 1006.5
20260902194051 56 56 0.0 0.0 0.00 0.00 0.00 77 1006.6
20260902194045 57 56 0.0 0.0 0.00 0.00 0.00 75 1006.5
20260902194037 57 56 0.0 0.0 0.00 0.00 0.00 75 1006.6
20260902194024 58 56 0.0 0.0 0.00 0.00 0.00 72 1006.9
20260902194019 59 56 0.0 0.0 0.00 0.00 0.00 69 1006.9
20260902194014 60 56 0.0 0.0 0.00 0.00 0.00 67 1007.1
20260902194003 64 60 2.0 10.0 0.00 0.00 0.00 61 1007.7
20260902193958 60 56 0.0 0.0 0.00 0.00 0.00 67 1007.1
20260902193952 60 56 0.0 0.0 0.00 0.00 0.00 67 1007.0
20260902193947 62 56 0.0 1.0 0.00 0.00 0.00 67 1007.3
20260902193939 64 151 1.0 8.0 0.00 0.00 0.00 61 1007.7
20260902193926 64 98 0.0 4.0 0.00 0.00 0.00 65 1007.4
20260902193921 64 98 0.0 3.0 0.00 0.00 0.00 66 1007.5
20260902193916 65 97 0.0 3.0 0.00 0.00 0.00 67 1007.4
20260902193854 63 105 0.0 3.0 0.00 0.00 0.00 69 1007.3
20260902193826 63 106 0.0 2.0 0.00 0.00 0.00 69 1007.4
20260902193445 64 106 0.0 3.0 0.00 0.00 0.00 68 1007.5
20260902193416 64 105 0.0 3.0 0.00 0.00 0.00 68 1007.4
20260902193354 64 105 0.0 3.0 0.00 0.00 0.00 68 1007.4
20260902193323 64 105 0.0 3.0 0.00 0.00 0.00 68 1007.3
20260902193300 64 106 0.0 4.0 0.00 0.00 0.00 69 1007.2
20260902193244 63 107 0.0 4.0 0.00 0.00 0.00 69 1007.2
20260902193219 63 146 0.0 3.0 0.00 0.00 0.00 70 1007.2
20260902193157 63 148 0.0 3.0 0.00 0.00 0.00 69 1007.2
20260902193125 63 166 0.0 5.0 0.00 0.00 0.00 69 1007.1
20260902193108 63 166 0.0 5.0 0.00 0.00 0.00 68 1007.0
20260902193045 64 171 0.0 3.0 0.00 0.00 0.00 68 1006.9
20260902193014 64 83 1.0 5.0 0.00 0.00 0.00 61 1007.5
20260902192622 64 172 1.0 5.0 0.00 0.00 0.00 67 1006.6
20260902192605 64 141 0.0 2.0 0.00 0.00 0.00 68 1006.6
20260902192529 64 142 0.0 4.0 0.00 0.00 0.00 70 1006.6
20260902192510 63 142 1.0 4.0 0.00 0.00 0.00 70 1006.6
20260902192502 64 177 1.0 5.0 0.00 0.00 0.00 63 1007.7
20260902192443 63 135 0.0 4.0 0.00 0.00 0.00 70 1006.6
20260902192416 62 125 0.0 4.0 0.00 0.00 0.00 71 1006.6
20260902192358 62 125 1.0 4.0 0.00 0.00 0.00 71 1006.6
20260902192336 62 59 0.0 3.0 0.00 0.00 0.00 72 1006.6
20260902192307 62 56 0.0 2.0 0.00 0.00 0.00 71 1006.6
20260902192243 62 56 0.0 2.0 0.00 0.00 0.00 71 1006.6
20260902192214 62 56 0.0 1.0 0.00 0.00 0.00 72 1006.5
20260902192149 61 56 0.0 0.0 0.00 0.00 0.00 72 1006.5
20260902192117 61 56 0.0 2.0 0.00 0.00 0.00 71 1006.5
20260902192059 61 56 0.0 2.0 0.00 0.00 0.00 70 1006.3
20260902192038 60 56 0.0 0.0 0.00 0.00 0.00 72 1006.2
20260902192010 60 56 0.0 0.0 0.00 0.00 0.00 73 1006.1
20260902192000 64 93 1.0 3.0 0.00 0.00 0.00 64 1007.7
20260902191939 60 56 0.0 0.0 0.00 0.00 0.00 72 1006.2
20260902191912 59 56 0.0 0.0 0.00 0.00 0.00 72 1006.5
20260902191847 59 56 0.0 0.0 0.00 0.00 0.00 73 1006.4
20260902191501 64 98 0.0 4.0 0.00 0.00 0.00 66 1007.4
20260902190801 58 56 0.0 0.0 0.00 0.00 0.00 76 1006.4
20260902190738 58 56 0.0 0.0 0.00 0.00 0.00 77 1006.4
20260902190709 57 56 0.0 0.0 0.00 0.00 0.00 76 1006.4
20260902190653 57 56 0.0 0.0 0.00 0.00 0.00 78 1006.4
20260902190616 56 56 0.0 0.0 0.00 0.00 0.00 78 1006.3
20260902190557 56 56 0.0 0.0 0.00 0.00 0.00 79 1006.3
20260902190533 56 56 0.0 0.0 0.00 0.00 0.00 79 1006.2
20260902190503 64 98 0.0 1.0 0.00 0.00 0.00 66 1007.4
20260902190118 56 56 0.0 0.0 0.00 0.00 0.00 79 1006.2
20260902190057 56 56 0.0 0.0 0.00 0.00 0.00 79 1006.2
20260902190032 55 56 0.0 0.0 0.00 0.00 0.00 79 1006.2
20260902190004 64 98 0.0 3.0 0.00 0.00 0.00 67 1007.4
20260902185958 55 56 0.0 0.0 0.00 0.00 0.00 78 1006.3
20260902185936 55 56 0.0 0.0 0.00 0.00 0.00 78 1006.3
20260902185904 56 56 0.0 0.0 0.00 0.00 0.00 77 1006.4
20260902185848 56 56 0.0 0.0 0.00 0.00 0.00 77 1006.4
20260902185450 56 56 0.0 0.0 0.00 0.00 0.00 77 1006.4
20260902185052 56 56 0.0 0.0 0.00 0.00 0.00 78 1006.4
20260902185031 56 56 0.0 0.0 0.00 0.00 0.00 78 1006.2
20260902185003 65 98 0.0 3.0 0.00 0.00 0.00 66 1007.4
20260902184958 56 56 0.0 0.0 0.00 0.00 0.00 78 1006.4
20260902184941 56 56 0.0 0.0 0.00 0.00 0.00 79 1006.3
20260902184912 56 56 0.0 0.0 0.00 0.00 0.00 78 1006.5
20260902184851 56 56 0.0 0.0 0.00 0.00 0.00 78 1006.5
20260902184825 56 56 0.0 0.0 0.00 0.00 0.00 78 1006.5
20260902184756 56 56 0.0 0.0 0.00 0.00 0.00 78 1006.5
20260902184740 56 56 0.0 0.0 0.00 0.00 0.00 78 1006.5
20260902184632 65 98 0.0 2.0 0.00 0.00 0.00 67 1007.4
20260902184337 56 56 0.0 0.0 0.00 0.00 0.00 79 1006.5
20260902184304 56 56 0.0 0.0 0.00 0.00 0.00 79 1006.5
20260902184244 56 56 0.0 0.0 0.00 0.00 0.00 79 1006.4
20260902184213 56 56 0.0 0.0 0.00 0.00 0.00 78 1006.4
20260902184152 56 56 0.0 0.0 0.00 0.00 0.00 78 1006.5
20260902184101 65 98 0.0 2.0 0.00 0.00 0.00 67 1007.3
20260902183653 65 98 0.0 1.0 0.00 0.00 0.00 67 1007.2
20260902183407 56 56 0.0 0.0 0.00 0.00 0.00 77 1006.7
20260902183346 56 56 0.0 0.0 0.00 0.00 0.00 77 1006.7
20260902183328 56 56 0.0 0.0 0.00 0.00 0.00 77 1006.7
20260902183258 56 56 0.0 0.0 0.00 0.00 0.00 76 1006.7
20260902183236 57 56 0.0 0.0 0.00 0.00 0.00 76 1006.7
20260902183205 57 56 0.0 0.0 0.00 0.00 0.00 76 1006.8
20260902183143 57 56 0.0 0.0 0.00 0.00 0.00 76 1006.7
20260902183109 57 56 0.0 0.0 0.00 0.00 0.00 76 1006.7
20260902183050 57 56 0.0 0.0 0.00 0.00 0.00 75 1006.6
20260902183027 57 56 0.0 0.0 0.00 0.00 0.00 75 1006.5
20260902183001 65 95 0.0 4.0 0.00 0.00 0.00 68 1007.2
20260902182953 57 56 0.0 0.0 0.00 0.00 0.00 75 1006.5
20260902182932 57 56 0.0 0.0 0.00 0.00 0.00 75 1006.6
20260902182526 57 56 0.0 0.0 0.00 0.00 0.00 75 1006.5
20260902182501 65 99 0.0 4.0 0.00 0.00 0.00 67 1007.3
20260902181801 57 56 0.0 0.0 0.00 0.00 0.00 75 1006.6
20260902181744 57 56 0.0 0.0 0.00 0.00 0.00 75 1006.7
20260902181722 57 56 0.0 0.0 0.00 0.00 0.00 73 1006.7
20260902181653 58 56 0.0 0.0 0.00 0.00 0.00 73 1006.7
20260902181633 58 56 0.0 0.0 0.00 0.00 0.00 73 1006.7
20260902181558 58 56 0.0 0.0 0.00 0.00 0.00 73 1006.7
20260902181540 58 56 0.0 0.0 0.00 0.00 0.00 73 1006.7
20260902181506 64 60 0.0 3.0 0.00 0.00 0.00 65 1007.3
20260902181501 58 56 0.0 0.0 0.00 0.00 0.00 73 1006.7
20260902181441 58 56 0.0 0.0 0.00 0.00 0.00 73 1006.7
20260902181406 58 56 0.0 0.0 0.00 0.00 0.00 73 1006.8
20260902181346 58 56 0.0 0.0 0.00 0.00 0.00 73 1006.9
20260902181207 64 58 0.0 3.0 0.00 0.00 0.00 66 1007.1
20260902180939 58 56 0.0 0.0 0.00 0.00 0.00 72 1006.9
20260902180918 58 56 0.0 0.0 0.00 0.00 0.00 71 1006.9
20260902180848 59 56 0.0 0.0 0.00 0.00 0.00 70 1006.9
20260902180820 59 56 0.0 0.0 0.00 0.00 0.00 70 1006.9
20260902180651 63 58 0.0 1.0 0.00 0.00 0.00 67 1007.2
20260902180402 60 56 0.0 0.0 0.00 0.00 0.00 68 1007.0
20260902180344 60 56 0.0 0.0 0.00 0.00 0.00 68 1007.0
20260902180057 61 56 0.0 1.0 0.00 0.00 0.00 66 1007.1
20260902180038 61 56 0.0 1.0 0.00 0.00 0.00 65 1007.1
20260902180008 61 56 0.0 2.0 0.00 0.00 0.00 65 1007.1
20260902180003 63 58 0.0 5.0 0.00 0.00 0.00 68 1007.2
20260902175941 61 56 0.0 2.0 0.00 0.00 0.00 67 1007.1
20260902175923 61 56 0.0 2.0 0.00 0.00 0.00 67 1007.1
20260902175853 61 56 0.0 2.0 0.00 0.00 0.00 68 1007.1
20260902175834 61 56 0.0 1.0 0.00 0.00 0.00 67 1007.1
20260902175759 61 56 0.0 1.0 0.00 0.00 0.00 68 1007.1
20260902175738 62 56 0.0 1.0 0.00 0.00 0.00 67 1007.2
20260902175615 63 58 0.0 5.0 0.00 0.00 0.00 68 1007.3
20260902175307 62 56 0.0 2.0 0.00 0.00 0.00 67 1007.3
20260902175248 62 56 0.0 2.0 0.00 0.00 0.00 67 1007.3
20260902175226 62 56 0.0 2.0 0.00 0.00 0.00 68 1007.4
20260902175159 61 56 0.0 2.0 0.00 0.00 0.00 68 1007.3
20260902175138 61 57 0.0 0.0 0.00 0.00 0.00 69 1007.4
20260902175000 63 58 1.0 5.0 0.00 0.00 0.00 68 1007.3
20260902174636 63 58 1.0 6.0 0.00 0.00 0.00 69 1007.3
20260902174353 65 58 0.0 0.0 0.00 0.00 0.00 62 1007.4
20260902174336 65 58 0.0 0.0 0.00 0.00 0.00 62 1007.4
20260902174205 63 60 1.0 6.0 0.00 0.00 0.00 69 1007.4
20260902173930 65 58 0.0 1.0 0.00 0.00 0.00 61 1007.4
20260902173902 66 58 0.0 1.0 0.00 0.00 0.00 61 1007.4